sat.trackr.live / text

‹ back to catalog

STARLINK-5247

NORAD 54203 · 2022-141AY

PAYLOAD ACTIVE UNKNOWN

§ Identity

Operator
Country
US
Launch date
2022-10-28
Launch site
AFWTR
Launch vehicle
Mass (kg)
RCS (m²)

Purposes: comms

External: N2YO · Heavens-Above · Gunter

§ Orbital elements

Epoch: 2026-09-20T06:57:15.102432Z

Period
93.79 min
Inclination
53.1604°
Eccentricity
0.0001180
Mean motion
15.35416254 rev/d
Perigee alt
458.9 km
Apogee alt
460.5 km
Semi-major
6,837.8 km
B*
5.8403e-5
RAAN
188.8004°
Arg perigee
81.7557°
Mean anomaly
278.3580°
Rev number
21,553

§ Raw data

STARLINK-52471 54203U 22141AY  26263.28975813  .00001658  00000+0  58403-4 0  99992 54203  53.1604 188.8004 0001180  81.7557 278.3580 15.35416254215532

JSON: /api/v1/satellites/54203 · /tle

For live sub-satellite position, see the globe view (requires WebGL).

§ Visibility from observer

Set your observer location to see the next 7 days of passes ≥ 10°. The values pass through the URL so the page stays shareable.

No JS? Fill the form by hand. The geolocation button needs JavaScript.